Location: Lucerne Valley
(34.4439°N, 116.9669°E)
Time: 02:25:03
(UTC-07:00)

Hubble Space Telescope - Pass Details

Date: 09 October 2017
Orbit: 537 x 541 km, 28.5° (Epoch: 17 October)

Event Time Altitude Azimuth Distance (km) Brightness Sun altitude
Exits shadow 13:25:18 26° 171° (S) 1,066 2.2 -23.0°
Drops below altitude 10° 13:28:07 10° 131° (SE) 1,785 3.9 -22.5°
Sets 13:30:35 0° 120° (ESE) 2,675 5.2 -22.0°
